Simultaneous Nadir Overpasses (SNOs) Predictions

Prediction of SNOs between METOP-A and TERRA Satellite Orbit:

Table of predicted SNOs for the next 14.0 days since TLE Epoch: 8/22/2020
Index Date (METOP-A) Time (METOP-A) Lat,Lon (METOP-A) SZA (METOP-A ) Date (TERRA) Time (TERRA) Lat,Lon (TERRA) SZA (TERRA ) Distance(km) Time Diff (sec)
1 08/24/2020 18:55:24 81.39, -54.91 73.60 08/24/2020 18:56:06 81.40, -54.88 73.63 0.74 42
2 08/24/2020 19:46:04 -81.38, 112.73 106.36 08/24/2020 19:45:33 -81.39, 112.64 106.38 1.66 31
3 08/27/2020 14:29:48 81.39, 11.37 74.58 08/27/2020 14:30:22 81.38, 11.22 74.58 2.77 34
4 08/27/2020 15:20:28 -81.38, 179.04 105.38 08/27/2020 15:19:48 -81.40, 179.16 105.37 2.40 40
5 08/30/2020 10:04:12 81.40, 77.63 75.59 08/30/2020 10:04:37 81.38, 77.67 75.60 1.74 25
6 08/30/2020 10:54:52 -81.39,-114.66 104.37 08/30/2020 10:54:04 -81.38,-114.75 104.40 1.66 48
7 09/02/2020 05:38:34 81.39, 144.28 76.65 09/02/2020 05:38:51 81.38, 144.08 76.63 3.37 17
8 09/02/2020 06:29:15 -81.39, -48.37 103.34 09/02/2020 06:28:18 -81.38, -48.32 103.37 1.35 57
9 09/05/2020 01:12:58 81.39,-149.48 77.69 09/05/2020 01:13:06 81.38,-149.56 77.68 2.01 8
